Regional Weather Roundup
Issued by NWS

Home | Current Version | Previous Version | Text Only | Print | Product List | Glossary Off
Versions: 1 2 3 4 5 6 7 8 9 10 11 12 13 14 15 16 17 18 19 20 21 22 23 24 25 26 27 28 29 30 31 32 33 34 35 36 37 38 39 40 41 42 43 44 45 46 47 48 49 50

355
ASUS43 KOAX 090602
RWRNE

WEATHER ROUNDUP FOR NEBRASKA
NATIONAL WEATHER SERVICE OMAHA NE
1200 AM CST FRI DEC 09 2016

NOTES: SATELLITE DATA IS BEING USED TO AUGMENT CLOUD COVER ABOVE
       12000 FEET.
       "FAIR" INDICATES FEW OR NO CLOUDS BELOW 12,000 FEET WITH NO
       SIGNIFICANT WEATHER AND/OR OBSTRUCTIONS TO VISIBILITY.

  * THESE STATIONS DO NOT REPORT WEATHER SUCH AS RAIN...SNOW OR FOG.

NEZ001>004-019>022-054>056-090700-
NEBRASKA PANHANDLE

CITY           SKY/WX    TMP DP  RH WIND       PRES   REMARKS
SCOTTSBLUFF    CLOUDY     6  -1  73 E13       30.28F WCI -10
6HR MIN TEMP:   2; 6HR MAX TEMP:   8;

ALLIANCE       CLOUDY     1  -4  79 SE10      30.29F WCI -15
6HR MIN TEMP:  -3; 6HR MAX TEMP:   4;

CHADRON        CLOUDY     1  -5  75 N6        30.33F WCI -10
6HR MIN TEMP:  -2; 6HR MAX TEMP:   6;

KIMBALL        CLOUDY     8   4  86 S9        30.21F WCI  -6
SIDNEY         CLOUDY     8   1  73 S14       30.28F WCI  -8
6HR MIN TEMP:  -1; 6HR MAX TEMP:   9;

$$

NEZ057>060-069>072-079>082-090700-
SOUTHWEST NEBRASKA

CITY           SKY/WX    TMP DP  RH WIND       PRES   REMARKS
NORTH PLATTE   CLOUDY     2  -3  80 E3        30.49S
6HR MIN TEMP:   1; 6HR MAX TEMP:  14;

IMPERIAL       CLOUDY     8   1  73 S3        30.43F
6HR MIN TEMP:   1; 6HR MAX TEMP:  10;

LEXINGTON      CLOUDY     5  -1  76 CALM      30.54R
MCCOOK         CLOUDY     1  -4  79 CALM      30.52F
6HR MIN TEMP:   0; 6HR MAX TEMP:  14;

OGALLALA       CLOUDY     9   2  73 CALM      30.42S
$$

NEZ005>010-023>029-035>040-094-090700-
NORTH CENTRAL NEBRASKA

CITY           SKY/WX    TMP DP  RH WIND       PRES   REMARKS
VALENTINE      CLOUDY    -4 -10  75 E5        30.50F WCI -15
6HR MIN TEMP:  -5; 6HR MAX TEMP:   6;

AINSWORTH      CLOUDY    -1  -5  83 CALM      30.50F
BROKEN BOW     CLOUDY    -1  -6  79 CALM      30.52S
6HR MIN TEMP:  -3; 6HR MAX TEMP:  11;

O`NEILL        CLEAR      1  -3  83 CALM      30.58S
ORD            CLOUDY    -1  -7  75 CALM      30.57S
6HR MIN TEMP:  -3; 6HR MAX TEMP:  12;

THEDFORD       CLOUDY     0  -6  75 CALM      30.47F
$$

NEZ041-046>049-061>064-073>077-083>087-090700-
SOUTH CENTRAL NEBRASKA

CITY           SKY/WX    TMP DP  RH WIND       PRES   REMARKS
GRAND ISLAND   CLEAR      4   0  83 NW5       30.61S WCI  -5
6HR MIN TEMP:   4; 6HR MAX TEMP:  16;

AURORA         CLEAR      4  -2  76 NW3       30.60F
HASTINGS       CLEAR      8   0  69 CALM      30.60S
6HR MIN TEMP:   6; 6HR MAX TEMP:  16;

HEBRON         CLEAR      7   3  86 W3        30.65R
HOLDREGE       CLOUDY     8   1  73 W3        30.56S
KEARNEY *      CLEAR      7  -2  66 CALM      30.57F
YORK             N/A      5   0  78 CALM      30.62S
$$

NEZ011>018-030>034-042>045-090700-
NORTHEAST NEBRASKA

CITY           SKY/WX    TMP DP  RH WIND       PRES   REMARKS
NORFOLK        CLEAR      6   0  76 NW6       30.61R WCI  -4
6HR MIN TEMP:   6; 6HR MAX TEMP:  14;

ALBION         CLEAR      1  -3  80 N3        30.61R
BLAIR          CLEAR     12   6  77 NW7       30.62R WCI   1
FREMONT        CLEAR      9   4  81 NW7       30.64S WCI  -3
TEKAMAH        CLEAR     11   4  73 NW9       30.65S WCI  -2
6HR MIN TEMP:  10; 6HR MAX TEMP:  18;

WAYNE          PTCLDY     3   0  84 NW5       30.63R WCI  -6
$$

NEZ050>053-065>068-078-088>093-090700-
SOUTHEAST NEBRASKA

CITY           SKY/WX    TMP DP  RH WIND       PRES   REMARKS
LINCOLN        CLEAR      8   3  80 CALM      30.67R
6HR MIN TEMP:   7; 6HR MAX TEMP:  21;

OMAHA EPPLEY   CLEAR     12   4  70 NW7       30.65S WCI   1
6HR MIN TEMP:  12; 6HR MAX TEMP:  19;

BEATRICE       CLEAR      9   5  85 CALM      30.64S
FALLS CITY     CLEAR     11   6  81 NW6       30.65S WCI   1
6HR MIN TEMP:  11; 6HR MAX TEMP:  20;

NEBRASKA CITY  PTCLDY    13   4  66 NW6       30.64R WCI   4
PLATTSMOUTH    PTCLDY    12   3  69 NW7       30.64R WCI   1
$$

NEZ044-045-051>053-067-090700-
OMAHA AREA

CITY           SKY/WX    TMP DP  RH WIND       PRES   REMARKS
OMAHA EPPLEY   CLEAR     12   4  70 NW7       30.65S WCI   1
6HR MIN TEMP:  12; 6HR MAX TEMP:  19;

BLAIR          CLEAR     12   6  77 NW7       30.62R WCI   1
FREMONT        CLEAR      9   4  81 NW7       30.64S WCI  -3
MILLARD        CLEAR     16   7  67 NW5       30.66R WCI   9
OFFUTT AFB     CLEAR     13   6  73 NW5       30.64R WCI   5
PLATTSMOUTH    PTCLDY    12   3  69 NW7       30.64R WCI   1
WAHOO          FAIR      11   4  74 NW7       30.65R WCI   0
$$




USA.gov is the U.S. government's official web portal to all federal, state and local government web resources and services.